• In Czech Republic
  • List of Countries
  • For 7 days
  • Water Temperature
  • Satellite Maps
  • Weather Map
  • Weather Widgets
  • user-avatar
    Login

    Hourly Weather Inverclyde

    Today, 16 December, Saturday

    Time Temperature Precipitation Wind Pressure Humidity
    00:00 -1°C° 0 mm 3 mps 757 mmHg 87%
    01:00 -1°C° 0 mm 3 mps 757 mmHg 87%
    02:00 -1°C° 0 mm 3 mps 757 mmHg 87%
    03:00 -1°C° 0 mm 3 mps 757 mmHg 86%
    04:00 -1°C° 0 mm 3 mps 757 mmHg 86%
    05:00 -1°C° 0 mm 3 mps 758 mmHg 86%
    06:00 -1°C° 0 mm 3 mps 758 mmHg 86%
    07:00 -1°C° 0 mm 3 mps 758 mmHg 86%
    08:00 -1°C° 0 mm 2 mps 759 mmHg 87%
    09:00 -1°C° 0 mm 2 mps 759 mmHg 87%
    10:00 -1°C° 0 mm 2 mps 759 mmHg 87%
    11:00 +1°C° 0 mm 2 mps 760 mmHg 86%
    12:00 +2°C° 0 mm 2 mps 760 mmHg 86%
    13:00 +1°C° 0 mm 2 mps 760 mmHg 87%
    14:00 +1°C° 0 mm 2 mps 761 mmHg 87%
    15:00 -1°C° 0 mm 2 mps 761 mmHg 88%
    16:00 -1°C° 0 mm 2 mps 761 mmHg 89%
    17:00 -1°C° 0 mm 2 mps 762 mmHg 90%
    18:00 -2°C° 0 mm 2 mps 762 mmHg 91%
    19:00 -2°C° 0 mm 2 mps 762 mmHg 91%
    20:00 -2°C° 0 mm 2 mps 762 mmHg 91%
    21:00 -2°C° 0 mm 2 mps 762 mmHg 91%
    22:00 -2°C° 0 mm 2 mps 762 mmHg 91%
    23:00 -1°C° 0 mm 2 mps 761 mmHg 91%

    Tomorrow, 17 December, Sunday

    Time Temperature Precipitation Wind Pressure Humidity
    00:00 -1°C° 0 mm 2 mps 761 mmHg 91%
    01:00 0°C° 0.1 mm 3 mps 760 mmHg 91%
    02:00 +1°C° 0.1 mm 3 mps 760 mmHg 91%
    03:00 +2°C° 0.1 mm 3 mps 759 mmHg 91%
    04:00 +3°C° 0.4 mm 3 mps 758 mmHg 92%
    05:00 +4°C° 0.4 mm 4 mps 757 mmHg 92%
    06:00 +4°C° 0.4 mm 4 mps 756 mmHg 93%
    07:00 +5°C° 0.7 mm 4 mps 755 mmHg 93%
    08:00 +5°C° 0.7 mm 5 mps 755 mmHg 93%
    09:00 +6°C° 0.7 mm 5 mps 754 mmHg 93%
    10:00 +6°C° 0.1 mm 5 mps 755 mmHg 93%
    11:00 +5°C° 0.1 mm 6 mps 755 mmHg 93%
    12:00 +5°C° 0.1 mm 6 mps 756 mmHg 93%
    13:00 +4°C° 0 mm 6 mps 757 mmHg 89%
    14:00 +3°C° 0 mm 5 mps 758 mmHg 85%
    15:00 +2°C° 0 mm 5 mps 759 mmHg 82%
    16:00 +2°C° 0 mm 5 mps 759 mmHg 82%
    17:00 +2°C° 0 mm 5 mps 760 mmHg 83%
    18:00 +2°C° 0 mm 5 mps 761 mmHg 84%
    19:00 +3°C° 0 mm 4 mps 761 mmHg 85%
    20:00 +3°C° 0 mm 4 mps 762 mmHg 87%
    21:00 +3°C° 0 mm 4 mps 762 mmHg 88%
    22:00 +2°C° 0 mm 3 mps 763 mmHg 88%
    23:00 +2°C° 0 mm 3 mps 764 mmHg 89%

    Day after tomorrow, 18 December, Monday

    Time Temperature Precipitation Wind Pressure Humidity
    00:00 +2°C° 0 mm 3 mps 764 mmHg 89%
    01:00 +2°C° 0 mm 3 mps 765 mmHg 89%
    02:00 +2°C° 0 mm 3 mps 765 mmHg 90%
    03:00 +3°C° 0 mm 2 mps 765 mmHg 90%
    04:00 +3°C° 0 mm 2 mps 766 mmHg 91%
    05:00 +3°C° 0 mm 2 mps 766 mmHg 93%
    06:00 +3°C° 0 mm 2 mps 766 mmHg 94%
    07:00 +4°C° 0 mm 2 mps 766 mmHg 93%
    08:00 +3°C° 0 mm 3 mps 766 mmHg 93%
    09:00 +3°C° 0 mm 3 mps 766 mmHg 93%
    10:00 +3°C° 0 mm 3 mps 766 mmHg 90%
    11:00 +4°C° 0 mm 3 mps 766 mmHg 88%
    12:00 +4°C° 0 mm 3 mps 766 mmHg 85%
    13:00 +4°C° 0 mm 3 mps 766 mmHg 85%
    14:00 +4°C° 0 mm 3 mps 766 mmHg 85%
    15:00 +5°C° 0 mm 3 mps 766 mmHg 85%
    16:00 +5°C° 0 mm 3 mps 766 mmHg 86%
    17:00 +5°C° 0 mm 3 mps 766 mmHg 88%
    18:00 +6°C° 0 mm 4 mps 766 mmHg 90%
    19:00 +6°C° 0 mm 4 mps 766 mmHg 92%
    20:00 +6°C° 0 mm 4 mps 766 mmHg 93%
    21:00 +7°C° 0 mm 3 mps 766 mmHg 94%
    22:00 +7°C° 0 mm 4 mps 766 mmHg 95%
    23:00 +7°C° 0 mm 4 mps 766 mmHg 95%

    19 December, Tuesday

    Time Temperature Precipitation Wind Pressure Humidity
    00:00 +7°C° 0 mm 4 mps 766 mmHg 95%
    01:00 +7°C° 0 mm 4 mps 766 mmHg 95%
    02:00 +8°C° 0 mm 4 mps 766 mmHg 95%
    03:00 +8°C° 0 mm 4 mps 766 mmHg 94%
    04:00 +8°C° 0 mm 4 mps 766 mmHg 94%
    05:00 +8°C° 0 mm 4 mps 765 mmHg 94%
    06:00 +8°C° 0 mm 4 mps 765 mmHg 94%
    07:00 +8°C° 0 mm 4 mps 765 mmHg 94%
    08:00 +8°C° 0 mm 4 mps 765 mmHg 94%
    09:00 +10°C° 0 mm 4 mps 765 mmHg 94%
    10:00 +10°C° 0 mm 4 mps 765 mmHg 93%
    11:00 +9°C° 0 mm 5 mps 765 mmHg 92%
    12:00 +10°C° 0 mm 5 mps 765 mmHg 91%
    13:00 +10°C° 0 mm 5 mps 765 mmHg 90%
    14:00 +10°C° 0 mm 5 mps 764 mmHg 90%
    15:00 +10°C° 0 mm 6 mps 764 mmHg 89%
    16:00 +10°C° 0.4 mm 5 mps 764 mmHg 90%
    17:00 +10°C° 0.4 mm 5 mps 764 mmHg 91%
    18:00 +10°C° 0.4 mm 5 mps 764 mmHg 93%
    19:00 +10°C° 0.4 mm 4 mps 765 mmHg 93%
    20:00 +10°C° 0.4 mm 4 mps 766 mmHg 93%
    21:00 +9°C° 0.4 mm 3 mps 767 mmHg 94%
    22:00 +9°C° 0 mm 3 mps 768 mmHg 94%
    23:00 +8°C° 0 mm 3 mps 769 mmHg 94%

    20 December, Wednesday

    Time Temperature Precipitation Wind Pressure Humidity
    00:00 +7°C° 0 mm 3 mps 770 mmHg 94%
    01:00 +7°C° 0 mm 2 mps 770 mmHg 94%
    02:00 +6°C° 0 mm 2 mps 771 mmHg 93%
    03:00 +6°C° 0 mm 2 mps 771 mmHg 93%
    04:00 +5°C° 0 mm 2 mps 772 mmHg 93%
    05:00 +5°C° 0 mm 2 mps 772 mmHg 93%
    06:00 +5°C° 0 mm 2 mps 772 mmHg 93%
    07:00 +5°C° 0 mm 2 mps 772 mmHg 92%
    08:00 +4°C° 0 mm 3 mps 772 mmHg 92%
    09:00 +4°C° 0 mm 3 mps 772 mmHg 91%
    10:00 +4°C° 0 mm 3 mps 772 mmHg 89%
    11:00 +4°C° 0 mm 3 mps 772 mmHg 87%
    12:00 +5°C° 0 mm 3 mps 771 mmHg 85%
    13:00 +5°C° 0 mm 3 mps 771 mmHg 83%
    14:00 +5°C° 0 mm 3 mps 770 mmHg 82%
    15:00 +5°C° 0 mm 3 mps 769 mmHg 80%
    16:00 +5°C° 0.3 mm 3 mps 768 mmHg 82%
    17:00 +5°C° 0.3 mm 3 mps 767 mmHg 84%
    18:00 +5°C° 0.3 mm 3 mps 766 mmHg 87%
    19:00 +5°C° 0.3 mm 3 mps 765 mmHg 88%
    20:00 +5°C° 0.3 mm 3 mps 765 mmHg 90%
    21:00 +5°C° 0.3 mm 3 mps 764 mmHg 92%
    22:00 +6°C° 0.3 mm 4 mps 764 mmHg 91%
    23:00 +7°C° 0.3 mm 5 mps 764 mmHg 90%

    21 December, Thursday

    Time Temperature Precipitation Wind Pressure Humidity
    00:00 +8°C° 0.3 mm 7 mps 764 mmHg 89%
    01:00 +7°C° 0.1 mm 6 mps 765 mmHg 88%
    02:00 +7°C° 0.1 mm 6 mps 766 mmHg 88%
    03:00 +5°C° 0.1 mm 6 mps 767 mmHg 87%
    04:00 +5°C° 0 mm 6 mps 767 mmHg 85%
    05:00 +4°C° 0 mm 6 mps 768 mmHg 82%
    06:00 +3°C° 0 mm 6 mps 769 mmHg 80%
    07:00 +3°C° 0 mm 5 mps 769 mmHg 80%
    08:00 +3°C° 0 mm 5 mps 770 mmHg 81%
    09:00 +2°C° 0 mm 5 mps 771 mmHg 81%
    10:00 +3°C° 0 mm 5 mps 771 mmHg 80%
    11:00 +3°C° 0 mm 5 mps 771 mmHg 78%
    12:00 +4°C° 0 mm 6 mps 772 mmHg 77%
    13:00 +4°C° 0 mm 6 mps 772 mmHg 78%
    14:00 +5°C° 0 mm 5 mps 772 mmHg 79%
    15:00 +5°C° 0 mm 5 mps 772 mmHg 79%
    16:00 +3°C° 0 mm 5 mps 772 mmHg 81%
    17:00 +4°C° 0 mm 4 mps 772 mmHg 83%
    18:00 +4°C° 0 mm 4 mps 773 mmHg 84%
    19:00 +4°C° 0 mm 4 mps 772 mmHg 85%
    20:00 +4°C° 0 mm 4 mps 772 mmHg 86%
    21:00 +4°C° 0 mm 4 mps 772 mmHg 87%
    22:00 +4°C° 0 mm 4 mps 772 mmHg 87%
    23:00 +4°C° 0 mm 4 mps 772 mmHg 88%
    Show more